DW7572 Weather Reports


time (UTC)temp
C
wind
direction
speed
KPH
gust
KPH
rain 1hr
cm
rain 24hr
cm
rain mn
cm
humidity
%
barometer
mb
20210122060022 -12 338 24.1 32.2 0.00 0.00 0.00 82 1020.4
20210122053026 -12 315 24.1 32.2 0.00 0.00 0.00 82 1020.2
20210122050030 -11 315 27.4 35.4 0.00 0.00 0.00 82 1019.9
20210122043022 -11 315 25.7 35.4 0.00 0.00 0.00 82 1019.7
20210122040025 -11 315 29.0 40.2 0.00 0.00 0.00 81 1019.4
20210122033021 -11 315 30.6 45.1 0.00 0.00 0.00 80 1018.9
20210122030023 -10 315 33.8 46.7 0.00 0.00 0.00 80 1018.1
20210122023024 -10 315 35.4 48.3 0.00 0.00 0.00 80 1017.7
20210122020035 -9 315 38.6 51.5 0.00 0.00 0.00 78 1017.2
20210122013025 -8 315 35.4 48.3 0.00 0.00 0.00 77 1016.6
20210122010025 -7 315 37.0 49.9 0.00 0.00 0.00 78 1016.0
20210122003031 -7 315 40.2 57.9 0.00 0.00 0.00 77 1015.5
20210122000033 -6 315 38.6 54.7 0.00 0.00 0.00 76 1015.2
20210121233035 -6 315 38.6 54.7 0.00 0.00 0.00 78 1014.5
20210121230022 -5 315 35.4 51.5 0.00 0.00 0.00 79 1014.0
20210121223021 -5 315 37.0 49.9 0.00 0.00 0.00 79 1013.5
20210121220030 -3 315 37.0 51.5 0.00 0.00 0.00 77 1012.8
20210121213021 -2 315 37.0 56.3 0.00 0.00 0.00 78 1012.4
20210121203024 0 315 40.2 61.2 0.00 0.00 0.00 81 1011.3
20210121200026 0 315 35.4 51.5 0.00 0.00 0.00 85 1010.6
20210121193033 0 315 37.0 49.9 0.00 0.00 0.00 84 1010.2
20210121190025 0 315 32.2 48.3 0.00 0.00 0.00 82 1010.0
20210121183036 1 315 32.2 49.9 0.00 0.03 0.00 79 1009.9
20210121180024 1 315 33.8 51.5 0.00 0.03 0.00 79 1010.0
20210121173032 1 293 30.6 46.7 0.00 0.03 0.00 78 1009.9
20210121170026 0 293 29.0 41.8 0.00 0.03 0.00 77 1009.7
20210121093032 -1 270 1.6 9.7 0.00 0.03 0.00 79 1007.9
20210121090025 0 270 1.6 12.9 0.00 0.03 0.00 79 1008.0
20210121083039 0 270 1.6 14.5 0.00 0.03 0.00 77 1007.6